Airfield :
LOGIN :

Register | Disclaimer

   EN    FR    IT 

 










Legend :    VFR   Marginal VFR   IFR   Intensive IFR   Very Intensive IFR
Visi :
Ceiling :
>= 8 km
>= 3000ft
5 to 8 km
1000 to 3000 ft
1500m to 5 km
500 to 1000 ft
800 to 1500m
200 to 500 ft
< 800m
< 200 ft
Symbols :   Thunderstorms  Fog  Heavy snow  Heavy precipitations  Wind > 20 kt
SIGMETs :     Misc.  Thunderstorms  Icing  Turbulence  Mountain Waves  Volcanic Ashes







- Airport Elevation : 74 ft
- IATA code : NDZ


ETMN - Cuxhaven Nordholz Sea AB

CURRENT METAR :
  • 232320Z 21013KT 9999 FEW040 07/04 Q1006 BLU+

EXPIRED METARs :
  • 232220Z 22013KT 9999 FEW040 07/04 Q1005 BLU+
  • 232120Z 22013KT 9999 07/04 Q1005 BLU+

TAF TAF ETMN
Valid from the 23 at 18:00 until the 24 at 03:00 UTC


231733Z 2318/2403 23015G25KT 9999 NSW SCT030 SCT050 CANCEL 1950
No reported NOTAMs for that airfield.



MET'MAP, your aeronautical weather chart ! - Copyright ORBIFLY December 2007 - Disclaimer

ORBIFLY MET'MAP TEAM :

Programming & Development : Alexandra Zaïnal
Concept & Development : Baudouin d'Aumeries
Co-Development & Prog : Marc-Olivier Méhu
Technical & hardware support : Manuel Goepfert

Contact : metmap@orbifly.com




SOURCES & CREDITS :

   NOAA